OK,170,31,793,170,2014-10-01T01:40:00,0,28072563,178955
OK,170,31,793,170,2014-10-01T01:45:00,0,28073010,178955
OK,170,31,793,170,2014-10-01T01:50:00,0,28073459,178955
OK,170,31,793,170,2014-10-01T01:55:00,0,28073778,178955
OK,162,33,793,162,2014-10-01T02:00:00,1,28074225,178955
OK,162,33,793,162,2014-10-01T02:05:00,1,28074668,178955
OK,162,33,793,162,2014-10-01T02:15:00,0,28075114,178955
OK,162,33,793,162,2014-10-01T02:20:00,0,28075563,178955
OK,140,38,793,140,2014-10-01T02:30:00,0,28076395,178955
OK,140,38,793,140,2014-10-01T02:35:00,0,28076844,178955
OK,140,38,793,140,2014-10-01T02:40:00,0,28077293,178955
OK,140,38,793,140,2014-10-01T02:45:00,0,28078145,178955
OK,140,38,793,140,2014-10-01T02:55:00,0,28078594,178955
OK,140,38,793,140,2014-10-01T03:00:00,0,28079039,178955
OK,140,38,793,140,2014-10-01T03:05:00,0,28079487,178955
OK,140,38,793,140,2014-10-01T03:10:00,0,28079930,178955
OK,140,38,793,140,2014-10-01T03:20:00,0,28080713,178955
OK,140,38,793,140,2014-10-01T03:25:00,0,28081162,178955
OK,140,38,793,140,2014-10-01T03:30:00,0,28081610,178955
OK,189,28,793,189,2014-10-01T03:35:00,1,28082058,178955
OK,201,26,793,201,2014-10-01T03:40:00,1,28082507,178955
OK,216,24,793,216,2014-10-01T03:45:00,2,28082937,178955
OK,232,23,793,232,2014-10-01T03:50:00,1,28083372,178955
OK,232,23,793,232,2014-10-01T03:55:00,0,28083821,178955
OK,252,21,793,252,2014-10-01T04:00:00,1,28084270,178955
OK,195,27,793,195,2014-10-01T04:05:00,2,28084710,178955
OK,151,35,793,151,2014-10-01T04:10:00,2,28085136,178955
OK,186,28,793,186,2014-10-01T04:15:00,2,28085585,178955
OK,209,25,793,209,2014-10-01T04:20:00,1,28086030,178955
OK,214,25,793,214,2014-10-01T04:25:00,1,28086479,178955
OK,214,25,793,214,2014-10-01T04:30:00,3,28086921,178955
OK,209,25,793,209,2014-10-01T04:35:00,5,28087370,178955
OK,183,29,793,183,2014-10-01T04:40:00,6,28087815,178955
OK,259,20,793,259,2014-10-01T04:45:00,3,28088264,178955
OK,213,25,793,213,2014-10-01T04:50:00,4,28088688,178955
OK,167,32,793,167,2014-10-01T04:55:00,3,28089131,178955
OK,266,20,793,266,2014-10-01T05:00:00,2,28089567,178955
OK,241,22,793,241,2014-10-01T05:05:00,1,28090016,178955
OK,253,21,793,253,2014-10-01T05:10:00,5,28090465,178955
OK,262,20,793,262,2014-10-01T05:15:00,4,28090809,178955
OK,291,18,793,291,2014-10-01T05:20:00,4,28091258,178955
OK,305,17,793,305,2014-10-01T05:25:00,3,28091702,178955
OK,362,14,793,362,2014-10-01T05:30:00,7,28092124,178955
OK,398,13,793,398,2014-10-01T05:35:00,7,28092572,178955
OK,387,13,793,387,2014-10-01T05:40:00,6,28093017,178955
OK,325,16,793,325,2014-10-01T05:50:00,6,28093889,178955
OK,325,16,793,325,2014-10-01T05:55:00,3,28094331,178955
OK,282,19,793,282,2014-10-01T06:00:00,4,28094745,178955
OK,311,17,793,311,2014-10-01T06:05:00,5,28095194,178955
OK,316,16,793,316,2014-10-01T06:10:00,6,28095641,178955
OK,256,20,793,256,2014-10-01T06:20:00,5,28096503,178955
OK,256,20,793,256,2014-10-01T06:25:00,6,28096952,178955
OK,331,16,793,331,2014-10-01T06:30:00,1,28097386,178955
OK,318,16,793,318,2014-10-01T06:35:00,3,28097835,178955
OK,316,16,793,316,2014-10-01T06:40:00,4,28098284,178955
OK,315,17,793,315,2014-10-01T06:45:00,1,28098721,178955
OK,315,17,793,315,2014-10-01T06:50:00,0,28099165,178955
OK,256,20,793,256,2014-10-01T07:00:00,12,28099956,178955
OK,192,27,793,192,2014-10-01T07:10:00,3,28100712,178955
OK,309,17,793,309,2014-10-01T07:20:00,0,28101532,178955
OK,184,29,793,184,2014-10-01T07:25:00,4,28101981,178955
OK,169,31,793,169,2014-10-01T07:30:00,3,28102417,178955
OK,166,32,793,166,2014-10-01T07:35:00,3,28102866,178955
OK,174,30,793,174,2014-10-01T07:40:00,4,28103293,178955
OK,253,21,793,253,2014-10-01T07:45:00,6,28103740,178955
OK,263,20,793,263,2014-10-01T07:50:00,6,28104185,178955
OK,239,22,793,239,2014-10-01T07:55:00,3,28104630,178955
OK,228,23,793,228,2014-10-01T08:00:00,2,28105069,178955
OK,293,18,793,293,2014-10-01T08:05:00,1,28105515,178955
OK,334,16,793,334,2014-10-01T08:10:00,1,28105956,178955
OK,408,13,793,408,2014-10-01T08:15:00,2,28106404,178955
OK,482,11,793,482,2014-10-01T08:20:00,1,28107231,178955
OK,369,14,793,369,2014-10-01T08:30:00,5,28107680,178955
OK,215,24,793,215,2014-10-01T08:40:00,2,28108568,178955
OK,267,20,793,267,2014-10-01T08:50:00,4,28109445,178955
OK,323,16,793,323,2014-10-01T09:00:00,0,28110237,178955
OK,244,22,793,244,2014-10-01T09:10:00,1,28111109,178955
OK,244,22,793,244,2014-10-01T09:20:00,0,28111987,178955
OK,391,13,793,391,2014-10-01T09:30:00,7,28112777,178955
OK,313,17,793,313,2014-10-01T09:40:00,2,28113650,178955
OK,313,17,793,313,2014-10-01T09:45:00,0,28114531,178955
OK,311,17,793,311,2014-10-01T09:50:00,4,28114888,178955
OK,216,24,793,216,2014-10-01T10:00:00,3,28115334,178955
OK,198,27,793,198,2014-10-01T10:05:00,1,28115772,178955
OK,194,27,793,194,2014-10-01T10:10:00,1,28116195,178955
OK,449,11,793,449,2014-10-01T10:20:00,4,28117052,178955
OK,359,14,793,359,2014-10-01T10:30:00,5,28117926,178955
OK,265,20,793,265,2014-10-01T10:35:00,4,28118373,178955
OK,199,26,793,199,2014-10-01T10:40:00,5,28118819,178955
OK,290,18,793,290,2014-10-01T10:45:00,5,28119264,178955
OK,392,13,793,392,2014-10-01T10:50:00,3,28119711,178955
OK,421,12,793,421,2014-10-01T10:55:00,1,28120158,178955
OK,256,20,793,256,2014-10-01T11:00:00,4,28120607,178955
OK,256,20,793,256,2014-10-01T11:05:00,4,28121439,178955
OK,164,32,793,164,2014-10-01T11:10:00,2,28121878,178955
OK,250,21,793,250,2014-10-01T11:15:00,0,28122326,178955
OK,345,15,793,345,2014-10-01T11:20:00,5,28122768,178955
OK,319,16,793,319,2014-10-01T11:25:00,6,28123216,178955
OK,256,20,793,256,2014-10-01T11:30:00,4,28123653,178955
OK,233,23,793,233,2014-10-01T11:40:00,8,28124097,178955
OK,393,13,793,393,2014-10-01T11:50:00,3,28124948,178955
OK,448,11,793,448,2014-10-01T11:55:00,6,28125826,178955
OK,528,10,793,528,2014-10-01T12:00:00,4,28126181,178955
OK,617,8,793,617,2014-10-01T12:05:00,1,28126627,178955
OK,508,10,793,508,2014-10-01T12:10:00,2,28127076,178955
OK,487,11,793,487,2014-10-01T12:15:00,2,28127525,178955
OK,575,9,793,575,2014-10-01T12:20:00,5,28127956,178955
OK,387,13,793,387,2014-10-01T12:30:00,6,28128402,178955
OK,276,19,793,276,2014-10-01T12:35:00,5,28129286,178955
OK,272,19,793,272,2014-10-01T12:40:00,2,28129721,178955
OK,440,12,793,440,2014-10-01T12:50:00,4,28130169,178955
OK,376,14,793,376,2014-10-01T13:00:00,4,28131046,178955
OK,289,18,793,289,2014-10-01T13:05:00,5,28131932,178955
OK,235,22,793,235,2014-10-01T13:10:00,2,28132371,178955
OK,229,23,793,229,2014-10-01T13:15:00,0,28132817,178955
OK,229,23,793,229,2014-10-01T13:20:00,0,28133255,178955
OK,647,8,793,647,2014-10-01T13:25:00,1,28133704,178955
OK,523,10,793,523,2014-10-01T13:30:00,0,28134143,178955
OK,746,7,793,746,2014-10-01T13:35:00,2,28134592,178955
OK,613,8,793,613,2014-10-01T13:40:00,2,28135012,178955
OK,549,9,793,549,2014-10-01T13:45:00,5,28135460,178955
OK,535,10,793,535,2014-10-01T13:50:00,1,28135897,178955
OK,651,8,793,651,2014-10-01T13:55:00,1,28136346,178955
OK,512,10,793,512,2014-10-01T14:00:00,5,28136786,178955
OK,504,10,793,504,2014-10-01T14:05:00,6,28137235,178955
OK,316,16,793,316,2014-10-01T14:10:00,4,28137670,178955
OK,339,15,793,339,2014-10-01T14:15:00,5,28138118,178955
OK,591,9,793,591,2014-10-01T14:20:00,1,28138547,178955
OK,601,8,793,601,2014-10-01T14:25:00,3,28138995,178955
OK,616,8,793,616,2014-10-01T14:30:00,2,28139407,178955
OK,635,8,793,635,2014-10-01T14:35:00,4,28139855,178955
OK,649,8,793,649,2014-10-01T14:40:00,5,28140298,178955
OK,693,7,793,693,2014-10-01T14:45:00,3,28140746,178955
OK,855,6,793,855,2014-10-01T14:50:00,2,28141174,178955
OK,887,6,793,887,2014-10-01T14:55:00,3,28141621,178955
OK,887,6,793,887,2014-10-01T15:00:00,1,28142051,178955
OK,814,6,793,814,2014-10-01T15:10:00,1,28142498,178955
OK,814,6,793,814,2014-10-01T15:15:00,3,28143374,178955
OK,757,7,793,757,2014-10-01T15:20:00,3,28143822,178955
OK,494,10,793,494,2014-10-01T15:30:00,4,28144271,178955
OK,373,14,793,373,2014-10-01T15:35:00,6,28145106,178955
OK,357,15,793,357,2014-10-01T15:40:00,5,28145555,178955
OK,324,16,793,324,2014-10-01T15:45:00,3,28146004,178955
OK,263,20,793,263,2014-10-01T15:55:00,4,28146453,178955
OK,244,22,793,244,2014-10-01T16:00:00,6,28146894,178955
OK,232,23,793,232,2014-10-01T16:05:00,3,28147754,178955
OK,255,21,793,255,2014-10-01T16:10:00,2,28148159,178955
OK,350,15,793,350,2014-10-01T16:15:00,2,28148604,178955
OK,418,12,793,418,2014-10-01T16:20:00,2,28149045,178955
OK,488,11,793,488,2014-10-01T16:30:00,3,28149492,178955
OK,584,9,793,584,2014-10-01T16:40:00,1,28150367,178955
OK,662,8,793,662,2014-10-01T16:50:00,6,28151234,178955
OK,584,9,793,584,2014-10-01T16:55:00,3,28151683,178955
OK,593,9,793,593,2014-10-01T17:00:00,0,28152132,178955
OK,534,10,793,534,2014-10-01T17:05:00,1,28152578,178955
OK,534,10,793,534,2014-10-01T17:10:00,1,28153025,178955
OK,479,11,793,479,2014-10-01T17:20:00,6,28153474,178955
OK,300,17,793,300,2014-10-01T17:30:00,6,28154333,178955
OK,268,20,793,268,2014-10-01T17:35:00,4,28154779,178955
OK,421,12,793,421,2014-10-01T17:40:00,0,28155224,178955
OK,254,21,793,254,2014-10-01T17:50:00,0,28156090,178955
OK,254,21,793,254,2014-10-01T17:55:00,0,28156539,178955
OK,254,21,793,254,2014-10-01T18:00:00,0,28156981,178955
OK,254,21,793,254,2014-10-01T18:05:00,0,28157855,178955
OK,254,21,793,254,2014-10-01T18:10:00,0,28158300,178955
OK,271,19,793,271,2014-10-01T18:15:00,2,28158746,178955
OK,255,21,793,255,2014-10-01T18:20:00,4,28159191,178955
OK,187,28,793,187,2014-10-01T18:25:00,3,28159527,178955
OK,203,26,793,203,2014-10-01T18:30:00,2,28159975,178955
OK,268,20,793,268,2014-10-01T18:40:00,1,28160424,178955
OK,268,20,793,268,2014-10-01T18:50:00,0,28161311,178955
OK,159,33,793,159,2014-10-01T19:00:00,1,28162177,178955
OK,159,33,793,159,2014-10-01T19:05:00,0,28163011,178955
OK,159,33,793,159,2014-10-01T19:10:00,0,28163458,178955
OK,138,38,793,138,2014-10-01T19:15:00,1,28163907,178955
OK,138,38,793,138,2014-10-01T19:20:00,0,28164340,178955
OK,200,26,793,200,2014-10-01T19:25:00,1,28164787,178955
OK,271,19,793,271,2014-10-01T19:30:00,3,28165219,178955
OK,302,17,793,302,2014-10-01T19:35:00,4,28165660,178955
OK,262,20,793,262,2014-10-01T19:40:00,4,28166101,178955
OK,236,22,793,236,2014-10-01T19:45:00,3,28166463,178955
OK,236,22,793,236,2014-10-01T19:50:00,1,28166912,178955
OK,241,22,793,241,2014-10-01T19:55:00,5,28167341,178955
OK,244,22,793,244,2014-10-01T20:00:00,5,28167775,178955
OK,202,26,793,202,2014-10-01T20:05:00,4,28168223,178955
OK,189,28,793,189,2014-10-01T20:10:00,3,28168668,178955
OK,160,33,793,160,2014-10-01T20:15:00,0,28169117,178955
OK,187,28,793,187,2014-10-01T20:20:00,4,28169565,178955
OK,176,30,793,176,2014-10-01T20:25:00,4,28169991,178955
OK,199,26,793,199,2014-10-01T20:30:00,0,28170436,178955
OK,153,35,793,153,2014-10-01T20:35:00,1,28170884,178955
OK,167,32,793,167,2014-10-01T20:40:00,3,28171321,178955
OK,167,32,793,167,2014-10-01T20:45:00,2,28171767,178955
OK,278,19,793,278,2014-10-01T20:50:00,1,28172215,178955
OK,278,19,793,278,2014-10-01T20:55:00,1,28172661,178955
OK,144,37,793,144,2014-10-01T21:00:00,1,28173107,178955
OK,144,37,793,144,2014-10-01T21:05:00,1,28173556,178955
OK,150,35,793,150,2014-10-01T21:10:00,2,28173997,178955
OK,138,38,793,138,2014-10-01T21:15:00,1,28174446,178955
OK,138,38,793,138,2014-10-01T21:20:00,1,28174872,178955
OK,138,38,793,138,2014-10-01T21:25:00,0,28175268,178955
OK,213,25,793,213,2014-10-01T21:30:00,2,28175717,178955
OK,213,25,793,213,2014-10-01T21:35:00,2,28176166,178955
OK,208,25,793,208,2014-10-01T21:45:00,0,28176615,178955
OK,208,25,793,208,2014-10-01T21:50:00,0,28177411,178955
OK,208,25,793,208,2014-10-01T21:55:00,0,28177857,178955
OK,208,25,793,208,2014-10-01T22:00:00,0,28178306,178955
OK,154,34,793,154,2014-10-01T22:10:00,2,28178753,178955
OK,154,34,793,154,2014-10-01T22:15:00,2,28179630,178955
OK,154,34,793,154,2014-10-01T22:20:00,0,28180077,178955
OK,154,34,793,154,2014-10-01T22:25:00,0,28180476,178955
OK,238,22,793,238,2014-10-01T22:30:00,1,28180924,178955
OK,238,22,793,238,2014-10-01T22:35:00,0,28181348,178955
OK,238,22,793,238,2014-10-01T22:40:00,0,28181796,178955
OK,238,22,793,238,2014-10-01T22:45:00,0,28182243,178955
OK,238,22,793,238,2014-10-01T22:50:00,0,28182692,178955
OK,238,22,793,238,2014-10-01T22:55:00,0,28183109,178955
OK,238,22,793,238,2014-10-01T23:00:00,0,28183542,178955
OK,238,22,793,238,2014-10-01T23:05:00,0,28183987,178955
OK,238,22,793,238,2014-10-01T23:10:00,0,28184436,178955
OK,238,22,793,238,2014-10-01T23:15:00,0,28184871,178955
OK,238,22,793,238,2014-10-01T23:20:00,0,28185319,178955
OK,238,22,793,238,2014-10-01T23:25:00,0,28185750,178955
OK,238,22,793,238,2014-10-01T23:30:00,0,28186142,178955
OK,238,22,793,238,2014-10-01T23:35:00,0,28186591,178955
OK,238,22,793,238,2014-10-01T23:40:00,0,28186989,178955
OK,238,22,793,238,2014-10-01T23:45:00,0,28187431,178955
OK,238,22,793,238,2014-10-01T23:50:00,0,28187880,178955
OK,238,22,793,238,2014-10-01T23:55:00,0,28188321,178955
OK,238,22,793,238,2014-10-02T00:00:00,0,28188757,178955
OK,238,22,793,238,2014-10-02T00:10:00,0,28189206,178955
OK,238,22,793,238,2014-10-02T00:15:00,0,28190077,178955
OK,238,22,793,238,2014-10-02T00:20:00,0,28190435,178955
OK,238,22,793,238,2014-10-02T00:25:00,0,28190879,178955
OK,238,22,793,238,2014-10-02T00:35:00,0,28191328,178955
OK,238,22,793,238,2014-10-02T00:40:00,0,28192083,178955
OK,238,22,793,238,2014-10-02T00:45:00,0,28192517,178955
OK,238,22,793,238,2014-10-02T00:50:00,0,28192960,178955
OK,238,22,793,238,2014-10-02T00:55:00,0,28193327,178955
OK,238,22,793,238,2014-10-02T01:00:00,0,28193776,178955
OK,238,22,793,238,2014-10-02T01:10:00,0,28194225,178955
OK,238,22,793,238,2014-10-02T01:15:00,0,28194674,178955
OK,238,22,793,238,2014-10-02T01:20:00,0,28195359,178955
OK,238,22,793,238,2014-10-02T01:30:00,0,28195808,178955
OK,238,22,793,238,2014-10-02T01:40:00,0,28196541,178955
OK,238,22,793,238,2014-10-02T01:45:00,0,28197413,178955
OK,238,22,793,238,2014-10-02T01:50:00,0,28197861,178955
OK,238,22,793,238,2014-10-02T01:55:00,0,28198309,178955
OK,238,22,793,238,2014-10-02T02:05:00,0,28198758,178955
OK,238,22,793,238,2014-10-02T02:10:00,0,28199572,178955
OK,238,22,793,238,2014-10-02T02:15:00,0,28200014,178955
OK,238,22,793,238,2014-10-02T02:20:00,0,28200457,178955
OK,238,22,793,238,2014-10-02T02:25:00,0,28200906,178955
OK,99,54,793,99,2014-10-02T02:30:00,1,28201337,178955
OK,99,54,793,99,2014-10-02T02:45:00,0,28202235,178955
OK,99,54,793,99,2014-10-02T02:50:00,0,28202677,178955
OK,99,54,793,99,2014-10-02T02:55:00,0,28203125,178955
OK,99,54,793,99,2014-10-02T03:00:00,0,28203560,178955
OK,99,54,793,99,2014-10-02T03:10:00,0,28204009,178955
OK,218,24,793,218,2014-10-02T03:25:00,0,28204458,178955
OK,218,24,793,218,2014-10-02T03:35:00,0,28204907,178955
OK,218,24,793,218,2014-10-02T03:40:00,0,28205782,178955
OK,202,26,793,202,2014-10-02T03:45:00,0,28206165,178955
OK,202,26,793,202,2014-10-02T03:55:00,0,28207063,178955
OK,148,36,793,148,2014-10-02T04:00:00,1,28207485,178955
OK,148,36,793,148,2014-10-02T04:10:00,0,28207931,178955
OK,148,36,793,148,2014-10-02T04:15:00,0,28208807,178955
OK,198,27,793,198,2014-10-02T04:20:00,1,28209246,178955
OK,181,29,793,181,2014-10-02T04:30:00,2,28209694,178955
OK,210,25,793,210,2014-10-02T04:40:00,2,28210566,178955
OK,204,26,793,204,2014-10-02T04:45:00,1,28211435,178955
OK,204,26,793,204,2014-10-02T04:50:00,0,28211813,178955
OK,450,11,793,450,2014-10-02T05:00:00,0,28212262,178955
OK,258,20,793,258,2014-10-02T05:10:00,1,28213140,178955
OK,329,16,793,329,2014-10-02T05:15:00,2,28213589,178955
OK,316,16,793,316,2014-10-02T05:20:00,1,28214027,178955
OK,355,15,793,355,2014-10-02T05:30:00,2,28214889,178955
OK,439,12,793,439,2014-10-02T05:40:00,7,28215754,178955
OK,381,14,793,381,2014-10-02T05:45:00,3,28216198,178955
OK,381,14,793,381,2014-10-02T05:50:00,0,28216982,178955
OK,463,11,793,463,2014-10-02T06:00:00,10,28217429,178955
OK,412,13,793,412,2014-10-02T06:05:00,5,28217872,178955
OK,412,13,793,412,2014-10-02T06:10:00,0,28218317,178955
OK,287,18,793,287,2014-10-02T06:15:00,2,28219186,178955
OK,364,14,793,364,2014-10-02T06:20:00,1,28219561,178955
OK,342,15,793,342,2014-10-02T06:25:00,2,28220008,178955
OK,320,16,793,320,2014-10-02T06:30:00,3,28220444,178955
OK,268,20,793,268,2014-10-02T06:40:00,2,28220891,178955
OK,312,17,793,312,2014-10-02T06:45:00,2,28221558,178955
OK,335,16,793,335,2014-10-02T07:00:00,5,28222152,178955
OK,222,24,793,222,2014-10-02T07:10:00,4,28222601,178955
OK,204,26,793,204,2014-10-02T07:15:00,0,28223468,178955
OK,204,26,793,204,2014-10-02T07:20:00,0,28223915,178955
OK,197,27,793,197,2014-10-02T07:25:00,2,28224270,178955
OK,156,34,793,156,2014-10-02T07:30:00,0,28224719,178955
OK,127,42,793,127,2014-10-02T07:40:00,0,28225168,178955
OK,281,19,793,281,2014-10-02T07:50:00,4,28225939,178955
OK,223,24,793,223,2014-10-02T08:00:00,1,28226829,178955
OK,223,24,793,223,2014-10-02T08:10:00,0,28227693,178955
OK,240,22,793,240,2014-10-02T08:20:00,0,28228501,178955
OK,252,21,793,252,2014-10-02T08:30:00,1,28229360,178955
OK,186,28,793,186,2014-10-02T08:40:00,0,28230159,178955
OK,266,20,793,266,2014-10-02T08:50:00,4,28230974,178955
OK,200,26,793,200,2014-10-02T09:00:00,2,28231846,178955
OK,200,26,793,200,2014-10-02T09:10:00,0,28232637,178955
OK,282,19,793,282,2014-10-02T09:20:00,1,28233086,178955
OK,237,22,793,237,2014-10-02T09:30:00,0,28233959,178955
OK,198,27,793,198,2014-10-02T09:35:00,4,28234741,178955
OK,195,27,793,195,2014-10-02T09:40:00,1,28235168,178955
OK,303,17,793,303,2014-10-02T09:45:00,2,28235617,178955
OK,303,17,793,303,2014-10-02T09:50:00,2,28236061,178955
OK,282,19,793,282,2014-10-02T10:00:00,1,28236507,178955
OK,282,19,793,282,2014-10-02T10:05:00,0,28237358,178955
OK,212,25,793,212,2014-10-02T10:10:00,1,28237806,178955
OK,222,24,793,222,2014-10-02T10:15:00,3,28238254,178955
OK,294,18,793,294,2014-10-02T10:20:00,4,28238695,178955
OK,291,18,793,291,2014-10-02T10:25:00,3,28239143,178955
OK,267,20,793,267,2014-10-02T10:30:00,0,28239574,178955
OK,274,19,793,274,2014-10-02T10:35:00,7,28240022,178955
OK,238,22,793,238,2014-10-02T10:40:00,5,28240467,178955
OK,339,15,793,339,2014-10-02T10:50:00,0,28240915,178955
OK,475,11,793,475,2014-10-02T10:55:00,1,28241795,178955
OK,339,15,793,339,2014-10-02T11:00:00,0,28242196,178955
OK,200,26,793,200,2014-10-02T11:10:00,3,28242640,178955
OK,200,26,793,200,2014-10-02T11:15:00,3,28243089,178955
OK,212,25,793,212,2014-10-02T11:20:00,0,28243533,178955
OK,212,25,793,212,2014-10-02T11:25:00,0,28244282,178955
OK,212,25,793,212,2014-10-02T11:30:00,0,28244730,178955
OK,188,28,793,188,2014-10-02T11:40:00,1,28245179,178955
OK,188,28,793,188,2014-10-02T11:45:00,0,28246034,178955
OK,188,28,793,188,2014-10-02T11:50:00,0,28246471,178955
OK,484,11,793,484,2014-10-02T11:55:00,3,28246920,178955
OK,481,11,793,481,2014-10-02T12:00:00,4,28247366,178955
OK,433,12,793,433,2014-10-02T12:05:00,2,28247798,178955
OK,485,11,793,485,2014-10-02T12:10:00,0,28248245,178955
OK,415,12,793,415,2014-10-02T12:15:00,6,28248693,178955
OK,432,12,793,432,2014-10-02T12:20:00,1,28249121,178955
OK,575,9,793,575,2014-10-02T12:25:00,4,28249564,178955
OK,601,8,793,601,2014-10-02T12:30:00,2,28249984,178955
OK,440,12,793,440,2014-10-02T12:35:00,6,28250381,178955
OK,308,17,793,308,2014-10-02T12:45:00,2,28251161,178955
OK,597,8,793,597,2014-10-02T13:20:00,2,28251706,178955
OK,616,8,793,616,2014-10-02T13:30:00,0,28252290,178955
OK,616,8,793,616,2014-10-02T13:35:00,0,28252732,178955
OK,616,8,793,616,2014-10-02T13:40:00,0,28253149,178955
OK,665,8,793,665,2014-10-02T13:45:00,1,28253598,178955
OK,665,8,793,665,2014-10-02T13:50:00,0,28254004,178955
OK,758,7,793,758,2014-10-02T13:55:00,1,28254324,178955
OK,589,9,793,589,2014-10-02T14:10:00,5,28254901,178955
OK,472,11,793,472,2014-10-02T14:15:00,5,28255350,178955
OK,472,11,793,472,2014-10-02T14:20:00,3,28255778,178955
OK,695,7,793,695,2014-10-02T14:25:00,0,28256227,178955
OK,663,8,793,663,2014-10-02T14:30:00,9,28256655,178955
OK,687,7,793,687,2014-10-02T14:35:00,6,28257104,178955
OK,411,13,793,411,2014-10-02T14:40:00,3,28257545,178955
OK,397,13,793,397,2014-10-02T14:45:00,4,28257993,178955
OK,384,13,793,384,2014-10-02T14:50:00,0,28258426,178955
OK,590,9,793,590,2014-10-02T14:55:00,2,28258872,178955
OK,589,9,793,589,2014-10-02T15:00:00,1,28259321,178955
OK,518,10,793,518,2014-10-02T15:05:00,1,28259768,178955
OK,482,11,793,482,2014-10-02T15:10:00,4,28260201,178955
OK,492,10,793,492,2014-10-02T15:15:00,5,28260650,178955
OK,494,10,793,494,2014-10-02T15:20:00,4,28261090,178955
OK,486,11,793,486,2014-10-02T15:25:00,6,28261472,178955
OK,471,11,793,471,2014-10-02T15:30:00,3,28261902,178955
OK,330,16,793,330,2014-10-02T15:35:00,7,28262349,178955
OK,272,19,793,272,2014-10-02T15:40:00,2,28262795,178955
OK,310,17,793,310,2014-10-02T15:45:00,1,28263233,178955
OK,310,17,793,310,2014-10-02T15:50:00,1,28263674,178955
OK,310,17,793,310,2014-10-02T15:55:00,0,28264076,178955
OK,310,17,793,310,2014-10-02T16:00:00,0,28264525,178955
OK,266,20,793,266,2014-10-02T16:05:00,4,28264963,178955
OK,245,21,793,245,2014-10-02T16:10:00,5,28265403,178955
OK,245,21,793,245,2014-10-02T16:15:00,3,28265799,178955
OK,339,15,793,339,2014-10-02T16:20:00,2,28266248,178955
OK,425,12,793,425,2014-10-02T16:25:00,3,28266697,178955
OK,591,9,793,591,2014-10-02T16:30:00,4,28267020,178955
OK,629,8,793,629,2014-10-02T16:35:00,2,28267469,178955
OK,631,8,793,631,2014-10-02T16:40:00,0,28267918,178955
OK,782,6,793,782,2014-10-02T16:45:00,2,28268360,178955
OK,836,6,793,836,2014-10-02T16:50:00,0,28268809,178955
OK,746,7,793,746,2014-10-02T16:55:00,5,28269258,178955
OK,609,8,793,609,2014-10-02T17:00:00,5,28269693,178955
OK,603,8,793,603,2014-10-02T17:05:00,4,28270142,178955
OK,618,8,793,618,2014-10-02T17:10:00,1,28270576,178955
OK,618,8,793,618,2014-10-02T17:15:00,0,28271025,178955
OK,618,8,793,618,2014-10-02T17:20:00,0,28271455,178955
OK,306,17,793,306,2014-10-02T17:25:00,0,28271903,178955
OK,306,17,793,306,2014-10-02T17:30:00,0,28272339,178955
OK,306,17,793,306,2014-10-02T17:35:00,0,28272780,178955
OK,306,17,793,306,2014-10-02T17:40:00,0,28273228,178955
OK,267,20,793,267,2014-10-02T17:45:00,2,28273674,178955
OK,279,19,793,279,2014-10-02T17:55:00,2,28274123,178955
OK,259,20,793,259,2014-10-02T18:00:00,2,28274897,178955
OK,254,21,793,254,2014-10-02T18:05:00,0,28275336,178955
OK,254,21,793,254,2014-10-02T18:10:00,0,28275781,178955
OK,254,21,793,254,2014-10-02T18:15:00,0,28276227,178955
OK,254,21,793,254,2014-10-02T18:20:00,0,28276623,178955
OK,254,21,793,254,2014-10-02T18:30:00,0,28277072,178955
OK,270,19,793,270,2014-10-02T18:40:00,0,28277521,178955
OK,270,19,793,270,2014-10-02T18:45:00,0,28278318,178955
OK,232,23,793,232,2014-10-02T19:00:00,0,28278767,178955
OK,295,18,793,295,2014-10-02T19:05:00,2,28279216,178955
OK,287,18,793,287,2014-10-02T19:10:00,0,28279661,178955
OK,200,26,793,200,2014-10-02T19:15:00,1,28280102,178955
OK,200,26,793,200,2014-10-02T19:20:00,0,28280549,178955
OK,331,16,793,331,2014-10-02T19:25:00,0,28280953,178955
OK,331,16,793,331,2014-10-02T19:35:00,0,28281851,178955
OK,230,23,793,230,2014-10-02T19:40:00,1,28282282,178955
OK,230,23,793,230,2014-10-02T19:45:00,0,28282731,178955
OK,230,23,793,230,2014-10-02T19:50:00,0,28283178,178955
OK,287,18,793,287,2014-10-02T19:55:00,4,28283608,178955
OK,197,27,793,197,2014-10-02T20:00:00,1,28283978,178955
OK,173,31,793,173,2014-10-02T20:10:00,1,28284427,178955
OK,249,21,793,249,2014-10-02T20:15:00,0,28285210,178955
OK,249,21,793,249,2014-10-02T20:20:00,0,28285646,178955
OK,249,21,793,249,2014-10-02T20:25:00,0,28286061,178955
OK,249,21,793,249,2014-10-02T20:35:00,0,28286913,178955
OK,249,21,793,249,2014-10-02T20:40:00,0,28287344,178955
OK,217,24,793,217,2014-10-03T22:35:00,2,28291624,178955
OK,217,24,793,217,2014-10-03T22:40:00,2,28292073,178955
OK,180,29,793,180,2014-10-03T22:45:00,2,28292522,178955